SCP
0 0 0 0 0 0 0 0 0 0 0 0 0 0 0 0 0 0 0 0 0 0
0 0 0 0 0 0 0 0 0 0 0 0 0 0 0 0 0 0 0 0 0 0
0 0 0 0 0 0 0 0 0 0 0 0 0 0 0 0 0 0 0 0 0 0
0 0 0 0 0 0 0 0 0 0 0 0 0 0 0 0 0 0 0 0 0 0
0 0 0 0 0 0 0 0 0 0 0 0 0 0 0 0 0 0 0 0 0 0
0 0 0 0 0 0 0 0 0 0 0 0 0 0 0 0 0 0 0 0 0 0
0 0 0 0 0 0 0 0 0 0 0 0 0 0 0 0 0 0 0 0 0 0
0 0 0 0 0 0 0 0 0 0 0 0 0 0 0 0 0 0 0 0 0 0
0 0 0 0 0 0 0 0 0 0 0 0 0 0 0 0 0 0 0 0 0 0
0 0 0 0 0 0 0 0 0 0 0 0 0 0 0 0 0 0 0 0 0 0
0 0 0 0 0 0 0 0 0 0 0 0 0 0 0 0 0 0 0 0 0 0
0 0 0 0 0 0 0 0 0 0 0 0 0 0 0 0 0 0 0 0 0 0
0 0 0 0 0 0 0 0 0 0 0 0 0 0 0 0 0 0 0 0 0 0
0 0 0 0 0 0 0 0 0 0 0 0 0 0 0 0 0 0 0 0 0 0
Wind_Speed_500mb
48 49 49 49 51 51 46 43 40 40 41 42 43 45 45 45 45 44 40 41 40 45
39 39 42 44 41 41 37 34 31 31 32 34 35 36 37 38 39 38 41 43 44 47
32 30 29 29 27 25 23 22 22 24 25 27 27 27 28 30 32 33 35 38 41 44
28 26 22 20 18 17 17 17 18 19 22 23 25 26 28 30 29 29 30 33 35 39
21 20 17 15 13 11 11 12 14 17 19 20 21 22 23 24 25 26 29 31 32 33
16 15 13 11 10 9 9 10 11 12 14 15 17 18 19 20 22 23 24 25 26 27
14 12 10 7 5 5 6 7 10 11 12 13 15 16 18 19 20 22 23 25 26 27
11 8 5 3 2 3 5 8 10 12 14 16 19 17 17 17 19 20 22 24 26 27
5 2 0 2 4 6 7 9 11 13 15 18 22 18 19 21 23 23 24 24 26 28
2 4 6 8 9 10 11 13 14 15 17 19 22 25 21 21 21 21 23 23 23 25
7 7 8 10 12 13 14 15 15 15 16 18 21 23 18 18 19 18 17 18 17 17
11 12 13 13 13 13 14 14 16 15 15 15 15 16 12 11 12 13 13 13 13 13
12 12 13 14 14 13 12 10 9 9 10 11 11 13 10 8 9 10 9 9 13 12
12 12 12 11 9 8 8 7 6 6 6 7 8 10 10 8 12 13 12 13 16 17
Wind_Direction_500mb
221 228 233 237 241 240 239 241 243 246 249 253 256 257 255 253 255 257 260 262 263 264
209 215 224 230 230 232 233 236 238 243 248 253 256 258 258 258 256 253 256 262 264 269
190 195 204 209 211 211 214 221 231 240 249 255 258 260 261 263 264 265 261 262 263 263
154 159 167 179 191 204 217 228 237 245 251 254 256 259 262 264 261 262 263 265 265 269
148 152 160 170 180 194 212 226 236 242 248 252 255 259 261 264 266 269 271 273 275 276
142 144 154 164 176 190 207 222 231 239 245 252 257 261 265 269 272 274 277 279 280 281
133 136 141 150 172 204 229 245 251 257 262 267 270 274 276 275 275 277 281 285 288 291
121 123 129 141 210 267 279 280 281 284 287 288 288 293 293 290 288 289 291 293 296 299
99 90 45 275 271 272 274 278 281 284 286 289 292 300 303 300 297 296 295 297 301 303
236 261 269 270 271 273 273 274 276 276 276 279 287 294 302 303 298 297 298 300 300 303
245 261 273 280 282 281 280 280 281 281 284 286 290 297 303 298 297 297 300 304 307 313
265 262 258 254 256 259 262 265 262 265 268 272 280 291 302 302 307 315 321 327 335 340
273 270 268 265 261 256 250 247 254 264 271 276 286 304 323 333 329 328 330 328 336 344
258 261 263 264 262 259 257 255 259 268 280 289 300 308 319 345 338 330 334 332 332 331
Wind_Speed_850mb
48 49 49 49 51 51 46 43 40 40 41 42 43 45 45 45 45 44 40 41 40 45
39 39 42 44 41 41 37 34 31 31 32 34 35 36 37 38 39 38 41 43 44 47
32 30 29 29 27 25 23 22 22 24 25 27 27 27 28 30 32 33 35 38 41 44
28 26 22 20 18 17 17 17 18 19 22 23 25 26 28 30 29 29 30 33 35 39
21 20 17 15 13 11 11 12 14 17 19 20 21 22 23 24 25 26 29 31 32 33
16 15 13 11 10 9 9 10 11 12 14 15 17 18 19 20 22 23 24 25 26 27
14 12 10 7 5 5 6 7 10 11 12 13 15 16 18 19 20 22 23 25 26 27
11 8 5 3 2 3 5 8 10 12 14 16 19 17 17 17 19 20 22 24 26 27
5 2 0 2 4 6 7 9 11 13 15 18 22 18 19 21 23 23 24 24 26 28
2 4 6 8 9 10 11 13 14 15 17 19 22 25 21 21 21 21 23 23 23 25
7 7 8 10 12 13 14 15 15 15 16 18 21 23 18 18 19 18 17 18 17 17
11 12 13 13 13 13 14 14 16 15 15 15 15 16 12 11 12 13 13 13 13 13
12 12 13 14 14 13 12 10 9 9 10 11 11 13 10 8 9 10 9 9 13 12
12 12 12 11 9 8 8 7 6 6 6 7 8 10 10 8 12 13 12 13 16 17
Wind_Direction_850mb
221 228 233 237 241 240 239 241 243 246 249 253 256 257 255 253 255 257 260 262 263 264
209 215 224 230 230 232 233 236 238 243 248 253 256 258 258 258 256 253 256 262 264 269
190 195 204 209 211 211 214 221 231 240 249 255 258 260 261 263 264 265 261 262 263 263
154 159 167 179 191 204 217 228 237 245 251 254 256 259 262 264 261 262 263 265 265 269
148 152 160 170 180 194 212 226 236 242 248 252 255 259 261 264 266 269 271 273 275 276
142 144 154 164 176 190 207 222 231 239 245 252 257 261 265 269 272 274 277 279 280 281
133 136 141 150 172 204 229 245 251 257 262 267 270 274 276 275 275 277 281 285 288 291
121 123 129 141 210 267 279 280 281 284 287 288 288 293 293 290 288 289 291 293 296 299
99 90 45 275 271 272 274 278 281 284 286 289 292 300 303 300 297 296 295 297 301 303
236 261 269 270 271 273 273 274 276 276 276 279 287 294 302 303 298 297 298 300 300 303
245 261 273 280 282 281 280 280 281 281 284 286 290 297 303 298 297 297 300 304 307 313
265 262 258 254 256 259 262 265 262 265 268 272 280 291 302 302 307 315 321 327 335 340
273 270 268 265 261 256 250 247 254 264 271 276 286 304 323 333 329 328 330 328 336 344
258 261 263 264 262 259 257 255 259 268 280 289 300 308 319 345 338 330 334 332 332 331